| time (UTC) | temp C | wind direction | speed KPH | gust KPH | rain 1hr cm | rain 24hr cm | rain mn cm | humidity % | barometer mb |
| 20260503234856 | 17 | 194 | 0.0 | 6.4 | 0.00 | 0.00 | 0.00 | 38 | 1012.3 |
| 20260503233856 | 17 | 216 | 0.0 | 9.7 | 0.00 | 0.00 | 0.00 | 38 | 1012.3 |
| 20260503232856 | 17 | 180 | 0.0 | 24.1 | 0.00 | 0.00 | 0.00 | 37 | 1012.3 |
| 20260503231856 | 17 | 188 | 0.0 | 20.9 | 0.00 | 0.00 | 0.00 | 37 | 1012.4 |
| 20260503230855 | 18 | 193 | 0.0 | 1.6 | 0.00 | 0.00 | 0.00 | 36 | 1012.4 |
| 20260503225855 | 17 | 222 | 0.0 | 8.0 | 0.00 | 0.00 | 0.00 | 38 | 1012.4 |
| 20260503223854 | 18 | 203 | 0.0 | 14.5 | 0.00 | 0.00 | 0.00 | 36 | 1012.8 |
| 20260503222854 | 18 | 239 | 0.0 | 20.9 | 0.00 | 0.00 | 0.00 | 35 | 1012.8 |
| 20260503221855 | 18 | 226 | 6.4 | 17.7 | 0.00 | 0.00 | 0.00 | 34 | 1013.3 |
| 20260503220853 | 18 | 259 | 0.0 | 20.9 | 0.00 | 0.00 | 0.00 | 34 | 1013.3 |
| 20260503215855 | 18 | 223 | 19.3 | 25.7 | 0.00 | 0.00 | 0.00 | 33 | 1013.3 |
| 20260503214853 | 18 | 209 | 14.5 | 14.5 | 0.00 | 0.00 | 0.00 | 33 | 1013.5 |
| 20260503213853 | 18 | 202 | 6.4 | 16.1 | 0.00 | 0.00 | 0.00 | 33 | 1014.0 |
| 20260503212853 | 18 | 211 | 0.0 | 19.3 | 0.00 | 0.00 | 0.00 | 32 | 1013.9 |
| 20260503211852 | 18 | 215 | 0.0 | 24.1 | 0.00 | 0.00 | 0.00 | 32 | 1014.4 |
| 20260503210852 | 18 | 244 | 0.0 | 20.9 | 0.00 | 0.00 | 0.00 | 31 | 1014.8 |
| 20260503205851 | 18 | 232 | 3.2 | 29.0 | 0.00 | 0.00 | 0.00 | 31 | 1014.8 |
| 20260503204852 | 18 | 212 | 0.0 | 32.2 | 0.00 | 0.00 | 0.00 | 31 | 1014.5 |
| 20260503203851 | 18 | 270 | 8.0 | 24.1 | 0.00 | 0.00 | 0.00 | 31 | 1014.8 |
| 20260503202850 | 18 | 215 | 0.0 | 29.0 | 0.00 | 0.00 | 0.00 | 31 | 1014.8 |
| 20260503201851 | 18 | 236 | 3.2 | 24.1 | 0.00 | 0.00 | 0.00 | 32 | 1015.0 |
| 20260503195850 | 18 | 211 | 8.0 | 25.7 | 0.00 | 0.00 | 0.00 | 32 | 1015.1 |
| 20260503194849 | 18 | 223 | 0.0 | 22.5 | 0.00 | 0.00 | 0.00 | 29 | 1015.7 |
| 20260503192849 | 18 | 213 | 0.0 | 27.4 | 0.00 | 0.00 | 0.00 | 32 | 1015.9 |
| 20260503191848 | 17 | 196 | 0.0 | 30.6 | 0.00 | 0.00 | 0.00 | 35 | 1016.1 |
| 20260503185848 | 17 | 180 | 0.0 | 22.5 | 0.00 | 0.00 | 0.00 | 29 | 1016.6 |
| 20260503184848 | 17 | 267 | 0.0 | 29.0 | 0.00 | 0.00 | 0.00 | 30 | 1017.1 |
| 20260503183847 | 17 | 266 | 0.0 | 20.9 | 0.00 | 0.00 | 0.00 | 29 | 1017.2 |
| 20260503182847 | 17 | 208 | 4.8 | 11.3 | 0.00 | 0.00 | 0.00 | 29 | 1017.2 |
| 20260503181846 | 17 | 232 | 0.0 | 24.1 | 0.00 | 0.00 | 0.00 | 32 | 1017.7 |
| 20260503180846 | 17 | 211 | 8.0 | 19.3 | 0.00 | 0.00 | 0.00 | 29 | 1017.7 |
| 20260503175846 | 17 | 242 | 14.5 | 25.7 | 0.00 | 0.00 | 0.00 | 28 | 1017.7 |
| 20260503174846 | 17 | 251 | 0.0 | 24.1 | 0.00 | 0.00 | 0.00 | 32 | 1017.7 |
| 20260503173845 | 17 | 245 | 0.0 | 9.7 | 0.00 | 0.00 | 0.00 | 32 | 1018.2 |
| 20260503172845 | 16 | 198 | 0.0 | 17.7 | 0.00 | 0.00 | 0.00 | 34 | 1018.2 |
| 20260503171845 | 16 | 251 | 8.0 | 25.7 | 0.00 | 0.00 | 0.00 | 30 | 1018.2 |
| 20260503170844 | 16 | 264 | 0.0 | 17.7 | 0.00 | 0.00 | 0.00 | 33 | 1018.5 |
| 20260503150841 | 14 | 253 | 16.1 | 16.1 | 0.00 | 0.00 | 0.00 | 41 | 1019.8 |
| 20260503130838 | 6 | 186 | 0.0 | 0.0 | 0.00 | 0.00 | 0.00 | 96 | 1019.9 |
| 20260503080858 | 2 | 3 | 0.0 | 0.0 | 0.00 | 0.00 | 0.00 | 95 | 1018.5 |
| 20260503071856 | 2 | 3 | 0.0 | 0.0 | 0.00 | 0.00 | 0.00 | 95 | 1018.5 |
| 20260503070856 | 2 | 3 | 0.0 | 0.0 | 0.00 | 0.00 | 0.00 | 94 | 1018.6 |
| 20260503054854 | 3 | 3 | 0.0 | 0.0 | 0.00 | 0.00 | 0.00 | 92 | 1019.0 |
| 20260503053853 | 3 | 3 | 0.0 | 0.0 | 0.00 | 0.00 | 0.00 | 92 | 1019.1 |
| 20260503052853 | 3 | 3 | 0.0 | 0.0 | 0.00 | 0.00 | 0.00 | 92 | 1019.1 |
| 20260503051853 | 3 | 3 | 0.0 | 0.0 | 0.00 | 0.00 | 0.00 | 91 | 1019.1 |
| 20260503050853 | 3 | 3 | 0.0 | 0.0 | 0.00 | 0.00 | 0.00 | 91 | 1019.0 |
| 20260503044852 | 3 | 3 | 0.0 | 0.0 | 0.00 | 0.00 | 0.00 | 90 | 1019.0 |
| 20260503043852 | 4 | 3 | 0.0 | 0.0 | 0.00 | 0.00 | 0.00 | 89 | 1018.9 |
| 20260503042851 | 4 | 3 | 0.0 | 0.0 | 0.00 | 0.00 | 0.00 | 88 | 1018.9 |
| 20260503041851 | 4 | 3 | 0.0 | 0.0 | 0.00 | 0.00 | 0.00 | 87 | 1018.9 |
| 20260503040851 | 4 | 3 | 0.0 | 0.0 | 0.00 | 0.00 | 0.00 | 85 | 1018.9 |
| 20260503033850 | 5 | 3 | 0.0 | 0.0 | 0.00 | 0.00 | 0.00 | 81 | 1018.9 |
| 20260503032850 | 5 | 3 | 0.0 | 0.0 | 0.00 | 0.00 | 0.00 | 79 | 1018.9 |
| 20260503030849 | 5 | 3 | 0.0 | 0.0 | 0.00 | 0.00 | 0.00 | 74 | 1018.9 |
| 20260503025848 | 5 | 3 | 0.0 | 0.0 | 0.00 | 0.00 | 0.00 | 71 | 1018.9 |
| 20260503024849 | 6 | 3 | 0.0 | 0.0 | 0.00 | 0.00 | 0.00 | 69 | 1018.8 |
| 20260503023848 | 6 | 3 | 0.0 | 0.0 | 0.00 | 0.00 | 0.00 | 69 | 1018.6 |
| 20260503022848 | 6 | 3 | 0.0 | 0.0 | 0.00 | 0.00 | 0.00 | 64 | 1018.6 |
| 20260503015847 | 8 | 3 | 0.0 | 0.0 | 0.00 | 0.00 | 0.00 | 58 | 1018.4 |
| 20260503014846 | 8 | 3 | 0.0 | 0.0 | 0.00 | 0.00 | 0.00 | 56 | 1018.0 |
| 20260503013846 | 8 | 3 | 0.0 | 0.0 | 0.00 | 0.00 | 0.00 | 53 | 1017.8 |
| 20260503012846 | 9 | 3 | 0.0 | 0.0 | 0.00 | 0.00 | 0.00 | 48 | 1017.9 |
| 20260503011845 | 9 | 1 | 0.0 | 0.0 | 0.00 | 0.00 | 0.00 | 48 | 1017.6 |
| 20260503010846 | 10 | 2 | 0.0 | 0.0 | 0.00 | 0.00 | 0.00 | 46 | 1017.6 |
| 20260503005845 | 10 | 3 | 0.0 | 0.0 | 0.00 | 0.00 | 0.00 | 47 | 1017.6 |
| 20260503003844 | 10 | 18 | 0.0 | 0.0 | 0.00 | 0.00 | 0.00 | 46 | 1017.3 |
| 20260503002843 | 11 | 13 | 0.0 | 0.0 | 0.00 | 0.00 | 0.00 | 44 | 1017.3 |
| 20260503001844 | 11 | 18 | 0.0 | 0.0 | 0.00 | 0.00 | 0.00 | 42 | 1017.0 |
| 20260503000843 | 11 | 18 | 0.0 | 8.0 | 0.00 | 0.00 | 0.00 | 41 | 1016.9 |
| 20260502235843 | 11 | 334 | 0.0 | 8.0 | 0.00 | 0.00 | 0.00 | 40 | 1016.9 |